Weather History for Manhattan, KS

Change the Weather History Date:

Monday, March 17, 2014

  Actual Average Record
Temperature  
Mean Temperature 42 °F 44 °F  
Max Temperature 63 °F 57 °F 82 °F (2009)
Min Temperature 21 °F 30 °F 21 °F (2014)
Degree Days  
Heating Degree Days 23 21  
Month to date heating degree days 463 418  
Since 1 July heating degree days 4994 4578  
Cooling Degree Days 0 0  
Month to date cooling degree days 0 0  
Year to date cooling degree days 0 0  
Moisture  
Dew Point 23 °F    
Average Humidity 55    
Maximum Humidity 84    
Minimum Humidity 25    
Precipitation  
Precipitation 0.00 in 0.07 in 0.56 in (1998)
Month to date precipitation 0.09 1.31  
Year to date precipitation 1.31 3.03  
Sea Level Pressure  
Sea Level Pressure 29.76 in    
Wind  
Wind Speed 11 mph (SSW)    
Max Wind Speed 23 mph    
Max Gust Speed 30 mph    
Visibility 10 miles    
Events      
T = Trace of Precipitation, MM = Missing Value Source: NWS Daily Summary

Daily Weather History Graph

Daily Weather History Graph

Search for Another Location

Airport:

Trip Planner

Search our weather history database for the weather conditions in past years. The results will help you decide how hot, cold, wet, or windy it might be!

Date:

Astronomy

Mar. 17, 2014 Rise Set
Actual Time 7:34 AM CDT 7:35 PM CDT
Civil Twilight 7:08 AM CDT 8:02 PM CDT
Nautical Twilight 6:37 AM CDT 8:33 PM CDT
Astronomical Twilight 6:05 AM CDT 9:05 PM CDT
Moon 8:53 PM CDT (3/17) 7:51 AM CDT (3/17)
Length of Visible Light 12h 54m
Length of Day
12h 00m
Full, 99% of the Moon is Illuminated
Mar 17
Full
Mar 23
Last Quarter
Mar 30
New
Apr 7
First Quarter
Apr 15
Full

Hourly Weather History & Observations

Time (CDT) Temp. Windchill Dew Point Humidity Pressure Visibility Wind Dir Wind Speed Gust Speed Precip Events Conditions
12:52 AM 28.0 °F - 17.1 °F 63% 30.12 in 10.0 mi Calm Calm - N/A   Clear
1:52 AM 25.0 °F - 16.0 °F 69% 30.09 in 10.0 mi Calm Calm - N/A   Clear
2:52 AM 25.0 °F - 17.1 °F 72% 30.07 in 10.0 mi Calm Calm - N/A   Clear
3:52 AM 24.1 °F - 17.1 °F 75% 30.04 in 10.0 mi Calm Calm - N/A   Clear
4:52 AM 25.0 °F 17.1 °F 18.0 °F 75% 29.99 in 10.0 mi WSW 6.9 mph - N/A   Clear
5:52 AM 23.0 °F 17.0 °F 17.1 °F 78% 29.95 in 10.0 mi SW 4.6 mph - N/A   Clear
6:52 AM 24.1 °F - 18.0 °F 77% 29.94 in 10.0 mi Calm Calm - N/A   Clear
7:52 AM 21.9 °F - 18.0 °F 85% 29.93 in 10.0 mi Calm Calm - N/A   Clear
8:52 AM 28.9 °F 21.9 °F 21.9 °F 75% 29.90 in 10.0 mi SSW 6.9 mph - N/A   Clear
9:52 AM 37.0 °F 28.1 °F 21.9 °F 54% 29.86 in 10.0 mi SSW 15.0 mph - N/A   Clear
10:52 AM 44.1 °F 37.1 °F 21.0 °F 40% 29.81 in 10.0 mi SSW 15.0 mph 23.0 mph N/A   Clear
11:52 AM 51.1 °F - 23.0 °F 33% 29.76 in 10.0 mi SSW 15.0 mph - N/A   Clear
12:52 PM 54.0 °F - 24.1 °F 31% 29.73 in 10.0 mi SW 18.4 mph 23.0 mph N/A   Clear
1:52 PM 57.0 °F - 25.0 °F 29% 29.68 in 10.0 mi South 17.3 mph 24.2 mph N/A   Clear
2:52 PM 61.0 °F - 25.0 °F 25% 29.64 in 10.0 mi SSW 18.4 mph 26.5 mph N/A   Clear
3:52 PM 61.0 °F - 25.0 °F 25% 29.59 in 10.0 mi South 18.4 mph - N/A   Clear
4:52 PM 63.0 °F - 27.0 °F 26% 29.55 in 10.0 mi SSW 18.4 mph 29.9 mph N/A   Clear
5:52 PM 59.0 °F - 27.0 °F 29% 29.55 in 10.0 mi SSW 15.0 mph 28.8 mph N/A   Clear
6:52 PM 57.0 °F - 26.1 °F 30% 29.54 in 10.0 mi SSW 16.1 mph 24.2 mph N/A   Clear
7:52 PM 54.0 °F - 26.1 °F 34% 29.54 in 10.0 mi South 12.7 mph - N/A   Clear
8:52 PM 51.1 °F - 27.0 °F 39% 29.53 in 10.0 mi South 10.4 mph - N/A   Clear
9:52 PM 48.0 °F - 28.9 °F 48% 29.53 in 10.0 mi South 10.4 mph - N/A   Clear
10:52 PM 46.9 °F - 28.0 °F 48% 29.52 in 10.0 mi South 13.8 mph 21.9 mph N/A   Clear
11:52 PM 46.9 °F - 27.0 °F 46% 29.49 in 10.0 mi South 8.1 mph - N/A   Clear